Zurück zum Katalog

STARLINK-30354

AktivKommunikationVLEO
NORAD 57772·PAYLOAD·🇺🇸 United States

Gestartet Sep 4, 2023 von Cape Canaveral Space Force Station

Loading…

Nächste Überflüge (nächste 24 Stunden)

TLE

AktuellSource: CelesTrak SupGP

Epoche: Sep 15, 2026, 02:50 UTC

1 57772C 23134B   26258.11854167  .00003279  00000+0  11878-3 0  2583
2 57772  43.0005 207.8098 0001409 269.0498 353.2954 15.27574697    13

Verfolge STARLINK-30354 in Echtzeit mit AllMySat

Download on the App Store